Location: Noordwijk
(52.2400°N, 4.4500°E)
Time: 02:14:35
(UTC+00:00)

PCSat - Pass Details

Date: 16 December 2022
Orbit: 785 x 793 km, 67.1° (Epoch: 08 February)

Event Time Altitude Azimuth Distance (km) Brightness Sun altitude
Rises 18:32:29 0° 264° (W) 3,282 14.1 -26.5°
Reaches altitude 10° 18:35:17 10° 277° (W) 2,357 13.0 -26.9°
Maximum altitude 18:39:46 26° 333° (NNW) 1,531 11.2 -27.6°
Enters shadow 18:41:10 23° 357° (N) 1,630 11.1 -27.8°
